Zurück zum Katalog

STARLINK-33688

AktivKommunikationVLEO
NORAD 63483·PAYLOAD·🇺🇸 United States

Gestartet Apr 6, 2025 von Cape Canaveral Space Force Station

Loading…

Nächste Überflüge (nächste 24 Stunden)

TLE

AktuellSource: CelesTrak SupGP

Epoche: Sep 14, 2026, 14:23 UTC

1 63483C 25070Z   26257.59979167  .00026324  00000+0  95361-3 0  2573
2 63483  43.0008 273.0817 0001585 275.2611 165.8682 15.27560123    11

Verfolge STARLINK-33688 in Echtzeit mit AllMySat

Download on the App Store